#timestamp,LO_Frequency,Hit,StdDev 
1576749615.5,286046997.0,N
1576749635.3,286046997.8,N
1576749655.1,286046997.4,N
1576749675.9,286046997.5,N
1576749695.7,286046996.2,N
1576749715.6,286046995.7,N
1576749735.4,286046995.7,N
1576749755.2,286046995.7,N
1576749775.1,286046993.4,Y
1576749776.0,286046993.4,P
1576749795.8,286046999.5,N
1576749815.7,286046999.1,N
1576749835.5,286046999.0,N
1576749855.3,286046999.1,N
1576749875.2,286046999.3,N
1576749895.0,286047001.1,N
1576749895.9,286047001.1,N
1576749915.7,286046998.5,N
1576749935.6,286046999.1,N
1576749955.4,286046997.7,N
1576749975.3,286046999.0,N
1576749995.1,286046998.8,N
1576749996.0,286046998.8,N
1576750015.8,286046999.6,N
1576750035.7,286046996.8,N
1576750055.5,286046997.9,N
1576750075.3,286046997.7,N
1576750095.2,286046997.0,N
1576750115.0,286047011.9,Y
1576750115.9,286046997.1,P
1576750135.8,286047001.1,N
1576750155.6,286047000.7,N
1576750175.4,286047000.6,N
1576750195.3,286047000.0,N
1576750215.1,286047000.5,N
1576750235.9,286047002.4,N
1576750255.7,286046999.8,N
1576750275.5,286047000.3,N
1576750295.4,286047000.0,N
1576750315.2,286047000.5,N
1576750335.1,286047000.7,N
1576750336.0,286047000.7,N
1576750355.8,286047000.8,N
1576750375.6,286046999.1,N
1576750395.5,286046998.7,N
1576750415.3,286046999.1,N
1576750435.1,286046998.2,N
1576750455.9,286046998.7,N
1576750475.7,286046999.2,N
1576750495.6,286046999.5,N
1576750515.4,286046999.3,N
1576750535.2,286046996.9,N
1576750555.1,286046994.9,Y
1576750556.0,286046994.9,P
1576750575.8,286046997.1,N
1576750595.7,286046997.8,N
1576750615.5,286046996.7,N
1576750635.3,286046997.4,N
1576750655.2,286046997.4,N
1576750675.0,286046996.7,N
1576750675.9,286046996.7,N
1576750695.7,286046998.8,N
1576750715.6,286046999.3,N
1576750735.4,286046999.4,N
1576750755.3,286046998.6,N
1576750775.1,286046998.6,N
1576750795.8,286046999.2,N
1576750815.7,286046998.7,N
1576750835.5,286046999.2,N
1576750855.4,286046996.8,N
1576750875.2,286046999.4,N
1576750895.0,286046999.5,N
1576750895.9,286046999.5,N
1576750915.8,286046998.4,N
1576750935.6,286046999.7,N
1576750955.4,286047000.2,N
1576750975.3,286047000.2,N
1576750995.1,286046999.8,N
1576751015.9,286047000.2,N
1576751035.7,286046999.9,N
1576751055.5,286046999.8,N
1576751075.4,286047001.6,N
1576751095.2,286047002.4,N
1576751115.0,286047000.2,N
1576751115.9,286047000.2,N
1576751135.8,286047002.2,N
1576751155.6,286047000.0,N
1576751175.5,286047002.6,N
1576751195.3,286047002.0,N
1576751215.1,286047001.4,N
1576751235.9,286047004.1,N
1576751255.7,286047003.0,N
1576751275.6,286047002.5,N
1576751295.4,286047003.9,N
1576751315.2,286047004.3,N
1576751335.1,286047003.0,N
1576751336.0,286047003.0,N
1576751355.8,286047004.8,N
1576751375.7,286047005.1,N
1576751395.5,286047005.2,N
1576751415.3,286047003.1,N
1576751435.2,286047005.0,N
1576751455.9,286047005.3,N
1576751475.7,286047005.3,N
1576751495.6,286047005.6,N
1576751515.4,286047004.4,N
1576751535.3,286047003.2,N
1576751555.1,286047003.8,N
1576751556.0,286047003.8,N
1576751575.8,286047003.3,N
1576751595.7,286047001.7,N
1576751615.5,286047003.8,N
1576751635.3,286047005.6,Y
1576751655.2,286047002.2,P
1576751675.0,286047000.3,N
1576751675.9,286047000.3,N
1576751695.8,286047000.1,N
1576751715.6,286047000.3,N
1576751735.4,286047001.7,N
1576751755.3,286047004.4,Y
1576751775.1,286047002.8,P
1576751795.9,286047001.6,N
1576751815.7,286047004.3,P
1576751835.5,286047001.9,N
1576751855.4,286046999.7,N
1576751875.2,286047000.7,N
1576751895.0,286047000.3,N
1576751895.9,286047000.3,N
1576751915.8,286047000.9,N
1576751935.6,286047000.7,N
1576751955.5,286046998.1,N
1576751975.3,286047001.2,N
1576751995.1,286046999.0,N
1576752015.9,286046997.1,N
1576752035.7,286046996.7,N
1576752055.5,286046999.6,N
1576752075.4,286046996.7,N
1576752095.2,286046997.7,N
1576752115.1,286046997.4,N
1576752116.0,286046997.4,N
1576752135.8,286046996.9,N
1576752155.6,286046999.6,N
1576752175.5,286046998.2,N
1576752195.3,286046998.5,N
1576752215.2,286047000.4,N
1576752235.9,286046998.2,N
1576752255.7,286046996.8,N
1576752275.6,286047001.2,N
1576752295.4,286047000.9,N
1576752315.2,286047000.9,N
1576752335.1,286047000.1,N
1576752336.0,286047000.1,N
1576752355.8,286046999.3,N
1576752375.7,286046999.6,N
1576752395.5,286047001.2,N
1576752415.3,286047002.6,N
1576752435.2,286046999.7,N
1576752455.0,286046999.8,N
1576752455.9,286046999.8,N
1576752475.8,286047002.8,N
1576752495.6,286046998.3,N
1576752515.4,286046998.2,N
1576752535.3,286046999.0,N
1576752555.1,286046997.4,N
1576752575.8,286046997.8,N
1576752595.7,286046995.0,Y
1576752615.5,286046996.6,P
1576752635.4,286046999.5,N
1576752655.2,286046999.9,N
1576752675.0,286047001.0,N
1576752675.9,286047001.0,N
1576752695.8,286046999.7,N
1576752715.6,286047002.6,N
1576752735.4,286047004.1,N
1576752755.3,286047002.6,N
1576752775.1,286047000.4,N
1576752795.9,286047000.5,N
1576752815.7,286047001.2,N
1576752835.5,286047001.5,N
1576752855.4,286046999.8,N
1576752875.2,286046999.7,N
1576752895.1,286047000.6,N
1576752896.0,286047000.6,N
1576752915.8,286046999.1,N
1576752935.6,286047000.3,N
1576752955.5,286047000.0,N
1576752975.3,286046999.4,N
1576752995.2,286046999.0,N
1576753015.9,286046998.7,N
1576753035.7,286047000.1,N
1576753055.6,286047000.4,N
1576753075.4,286046999.9,N
1576753095.2,286047002.7,N
1576753115.1,286047001.1,N
1576753116.0,286047001.1,N
1576753135.8,286046998.5,N
1576753155.7,286046998.8,N
1576753175.5,286046996.8,N
1576753195.3,286046997.1,N
